Regional Weather Roundup
Issued by NWS

Home | Current Version | Previous Version | Graphics & Text | Print | Product List | Glossary On
Versions: 1 2 3 4 5 6 7 8 9 10 11 12 13 14 15 16 17 18 19 20 21 22 23 24 25 26 27
000
ASUS45 KSLC 281210
RWRUT

UTAH REGIONAL WEATHER ROUNDUP
NATIONAL WEATHER SERVICE SALT LAKE CITY UT
600 AM MDT SUN MAY 28 2017

UTZ001>011-023>025-281300-

NORTHERN UTAH

CITY           SKY/WX    TMP DP  RH WIND       PRES   REMARKS
BRIGHAM CITY   CLEAR     47  37  68 NW5       30.24R
HILL AFB       CLEAR     49  34  56 SE18      30.24R
LOGAN          CLEAR     42  36  79 CALM      30.27S
OGDEN          CLEAR     48  35  60 S7        30.23R
SALT LAKE CITY CLEAR     51  41  68 CALM      30.22R
TOOELE VALLEY  CLEAR     43  36  75 S9        30.24R
WENDOVER       PTCLDY    51  33  50 CALM      30.23R
HEBER CITY     CLEAR     36  30  80 CALM      30.30R
WEST JORDAN    CLEAR     46  40  80 CALM      30.25R

$$

UTZ011>015-024>027-281300-

CENTRAL/NORTHEAST UTAH

CITY           SKY/WX    TMP DP  RH WIND       PRES   REMARKS
PROVO AIRPORT  CLEAR     46  38  73 CALM      30.26R
MOAB/CANYONLAN CLEAR     56  26  31 NE3       30.21R
DELTA          CLEAR     45  32  61 NE3       30.24S
PRICE          CLEAR     46  27  47 CALM      30.27R
ROOSEVELT      CLEAR     37  32  81 SW3       30.32R
VERNAL         CLEAR     46  30  53 W9        30.30R

$$

UTZ013>016-019>022-027-281300-

SOUTHERN UTAH

CITY           SKY/WX    TMP DP  RH WIND       PRES   REMARKS
BRYCE CANYON   PTCLDY    30  23  75 W9        30.34R WCI  22
CEDAR CITY     CLEAR     40  24  53 CALM      30.24R
MILFORD        CLEAR     40  25  55 W5        30.23R
ST GEORGE      SUNNY     64  28  25 NE6       30.09R
HANKSVILLE     CLEAR     52  23  32 NE7       30.24R
BLANDING       CLEAR     53  22  29 NE13      30.31R

$$

REGIONAL REPORTS     COLORADO/ARIZONA

CITY           SKY/WX    TMP DP  RH WIND       PRES   REMARKS
CRAIG, CO      CLEAR     29  26  89 SW3       30.35R
GRAND JUNCTION CLEAR     46  33  60 SW9       30.26R
RIFLE, CO      CLEAR     37  28  70 CALM      30.33R
MONTROSE, CO   CLEAR     38  30  73 SE12      30.33R WCI  30
CORTEZ, CO     CLEAR     33  28  81 CALM      30.26R
COLORADO CITY    N/A     41  28  60 CALM      30.20R
PAGE, AZ       CLEAR     62  23  22 SW6       30.15R
GRAND CANYON   PTCLDY    34  25  69 CALM      30.26R
KINGMAN, AZ    CLEAR     54  22  28 MISG      30.05R
FLAGSTAFF, AZ  CLEAR     36  24  62 CALM      30.25R

$$

REGIONAL REPORTS    NEVADA/IDAHO/WYOMING

CITY           SKY/WX    TMP DP  RH WIND       PRES   REMARKS
LAS VEGAS, NV  CLEAR     74  23  15 SW5       30.00R
ELY, NY        CLEAR     32  22  66 S8        30.30S WCI  25
ELKO, NV       CLEAR     41  33  73 CALM      30.25R
POCATELLO, ID  CLEAR     39  37  92 CALM      30.27S
BURLEY, ID     CLEAR     44  41  89 CALM      30.24R
EVANSTON, WY   CLEAR     38  30  73 CALM      30.34S
ROCK SPRINGS,  CLEAR     37  29  72 S6        30.33S WCI  32
KEMMERER, WY     N/A     34  30  86 NW7       30.36S WCI  28

$$




USA.gov is the U.S. government's official web portal to all federal, state and local government web resources and services.